NKS1783 MMUN-KMIA

Flight info

Callsign NKS1783
Flight time N/A
Altitude 39000
Route NUDA1A/12R NUDAL UV106 PODON UG765 MAXIM SNDBR3
Aircraft A20N/M-SDE2E3FGHIRWXY/LB1

Departure

Time 2026-05-03 20:51
Airport Cancún International Airport (MMUN)

Arrival

Time N/A
Airport Miami International Airport (KMIA)
Time Latitude Longitude Altitude Speed Heading
2026-05-03 20:15 21.03607 -86.86776 27 ft 0 kts 302°
2026-05-03 20:30 21.03606 -86.86765 27 ft 2 kts 189°
2026-05-03 20:31 21.03612 -86.86756 27 ft 3 kts 80°
2026-05-03 20:31 21.03614 -86.86753 27 ft 0 kts 53°
2026-05-03 20:33 21.03615 -86.86753 27 ft 2 kts 47°
2026-05-03 20:33 21.03621 -86.86757 27 ft 2 kts 318°
2026-05-03 20:34 21.03612 -86.86763 27 ft 0 kts 169°
2026-05-03 20:34 21.03610 -86.86758 27 ft 0 kts 116°
2026-05-03 20:41 21.03568 -86.86721 27 ft 24 kts 150°
2026-05-03 20:41 21.03442 -86.86780 27 ft 18 kts 227°
2026-05-03 20:41 21.03390 -86.86821 27 ft 1 kts 216°
2026-05-03 20:41 21.03341 -86.86877 27 ft 17 kts 258°
2026-05-03 20:42 21.03383 -86.86953 27 ft 27 kts 310°
2026-05-03 20:42 21.03520 -86.87167 28 ft 37 kts 304°
2026-05-03 20:42 21.03662 -86.87391 28 ft 36 kts 305°
2026-05-03 20:42 21.03799 -86.87602 28 ft 34 kts 307°
2026-05-03 20:43 21.03923 -86.87806 28 ft 32 kts 304°
2026-05-03 20:43 21.04093 -86.88080 28 ft 34 kts 304°
2026-05-03 20:43 21.04181 -86.88219 28 ft 33 kts 303°
2026-05-03 20:43 21.04300 -86.88410 29 ft 26 kts 304°
2026-05-03 20:44 21.04395 -86.88564 29 ft 25 kts 304°
2026-05-03 20:44 21.04490 -86.88716 29 ft 24 kts 304°
2026-05-03 20:44 21.04585 -86.88866 29 ft 24 kts 302°
2026-05-03 20:44 21.04631 -86.88938 29 ft 0 kts 296°
2026-05-03 20:45 21.04637 -86.88954 28 ft 1 kts 290°
2026-05-03 20:45 21.04641 -86.88978 28 ft 3 kts 274°
2026-05-03 20:45 21.04639 -86.88992 28 ft 1 kts 254°
2026-05-03 20:45 21.04612 -86.89026 28 ft 0 kts 216°
2026-05-03 20:46 21.04607 -86.89030 28 ft 0 kts 216°
2026-05-03 20:48 21.04541 -86.89069 27 ft 19 kts 185°
2026-05-03 20:48 21.04495 -86.89023 27 ft 1 kts 123°
2026-05-03 20:48 21.04489 -86.89015 27 ft 2 kts 124°
2026-05-03 20:49 21.04485 -86.89009 27 ft 0 kts 124°
2026-05-03 20:50 21.04483 -86.89005 27 ft 7 kts 124°
2026-05-03 20:50 21.04270 -86.88672 30 ft 99 kts 124°
2026-05-03 20:50 21.03742 -86.87841 162 ft 157 kts 125°
2026-05-03 20:51 21.03140 -86.86885 1052 ft 157 kts 125°
2026-05-03 20:51 21.02480 -86.85922 1827 ft 161 kts 126°
2026-05-03 20:51 21.01817 -86.84886 2470 ft 177 kts 122°
2026-05-03 20:51 21.01147 -86.83690 3033 ft 199 kts 120°
2026-05-03 20:52 21.00445 -86.82312 3577 ft 222 kts 118°
2026-05-03 20:52 20.99696 -86.80773 4188 ft 244 kts 117°
2026-05-03 20:52 20.98879 -86.79071 4569 ft 270 kts 117°
2026-05-03 20:52 20.98009 -86.77261 4695 ft 274 kts 117°
2026-05-03 20:53 20.97133 -86.75442 4796 ft 275 kts 117°
2026-05-03 20:53 20.96306 -86.73591 4891 ft 277 kts 108°
2026-05-03 20:53 20.96088 -86.71543 5275 ft 281 kts 83°
2026-05-03 20:53 20.96463 -86.69483 6256 ft 283 kts 78°
2026-05-03 20:54 20.96857 -86.67403 7195 ft 287 kts 78°
2026-05-03 20:54 20.97640 -86.63152 9056 ft 295 kts 78°
2026-05-03 20:54 20.98041 -86.60982 9990 ft 299 kts 77°
2026-05-03 20:55 20.98561 -86.58780 10544 ft 316 kts 69°
2026-05-03 20:55 20.99359 -86.56495 10840 ft 340 kts 68°
2026-05-03 20:55 21.00216 -86.54070 11319 ft 354 kts 68°
2026-05-03 20:55 21.01089 -86.51588 12102 ft 358 kts 68°
2026-05-03 20:56 21.01968 -86.49071 12865 ft 364 kts 69°
2026-05-03 20:56 21.02845 -86.46551 13606 ft 369 kts 69°
2026-05-03 20:56 21.03758 -86.43924 14296 ft 374 kts 69°
2026-05-03 20:56 21.04656 -86.41334 14942 ft 379 kts 69°
2026-05-03 20:57 21.05578 -86.38673 15586 ft 384 kts 69°
2026-05-03 20:57 21.06525 -86.35941 16229 ft 389 kts 69°
2026-05-03 20:57 21.07472 -86.33207 16857 ft 394 kts 69°
2026-05-03 20:57 21.08415 -86.30482 17465 ft 399 kts 69°
2026-05-03 20:58 21.09385 -86.27679 18079 ft 403 kts 69°
2026-05-03 20:58 21.10364 -86.24846 18622 ft 408 kts 69°
2026-05-03 20:58 21.11352 -86.21984 19176 ft 412 kts 69°
2026-05-03 20:58 21.12349 -86.19097 19724 ft 416 kts 69°
2026-05-03 20:59 21.13355 -86.16180 20260 ft 419 kts 69°
2026-05-03 20:59 21.14369 -86.13239 20808 ft 423 kts 69°
2026-05-03 20:59 21.15393 -86.10268 21344 ft 427 kts 69°
2026-05-03 20:59 21.16426 -86.07269 21887 ft 430 kts 69°
2026-05-03 21:00 21.17465 -86.04249 22394 ft 434 kts 69°
2026-05-03 21:00 21.18159 -86.02232 22711 ft 437 kts 69°
2026-05-03 21:00 21.19571 -85.98122 23371 ft 442 kts 68°
2026-05-03 21:00 21.20638 -85.95020 23819 ft 446 kts 69°
2026-05-03 21:01 21.21714 -85.91888 24222 ft 449 kts 69°
2026-05-03 21:01 21.22798 -85.88731 24636 ft 453 kts 69°
2026-05-03 21:01 21.23888 -85.85557 25031 ft 456 kts 69°
2026-05-03 21:01 21.24988 -85.82350 25415 ft 460 kts 69°
2026-05-03 21:02 21.26094 -85.79124 25790 ft 463 kts 69°
2026-05-03 21:02 21.27208 -85.75870 26160 ft 467 kts 69°
2026-05-03 21:02 21.28331 -85.72591 26521 ft 470 kts 69°
2026-05-03 21:02 21.29460 -85.69290 26896 ft 473 kts 69°
2026-05-03 21:03 21.30595 -85.65970 27242 ft 476 kts 69°
2026-05-03 21:03 21.31736 -85.62629 27597 ft 479 kts 69°
2026-05-03 21:03 21.32886 -85.59260 27936 ft 482 kts 69°
2026-05-03 21:03 21.34042 -85.55873 28280 ft 485 kts 70°
2026-05-03 21:04 21.35203 -85.52466 28596 ft 488 kts 70°
2026-05-03 21:04 21.36369 -85.49042 28933 ft 491 kts 70°
2026-05-03 21:04 21.37543 -85.45592 29239 ft 494 kts 70°
2026-05-03 21:04 21.38724 -85.42121 29564 ft 496 kts 70°
2026-05-03 21:05 21.39910 -85.38631 29887 ft 499 kts 70°
2026-05-03 21:05 21.41099 -85.35131 30184 ft 501 kts 70°
2026-05-03 21:05 21.42295 -85.31607 30469 ft 503 kts 70°
2026-05-03 21:05 21.43502 -85.28080 30769 ft 505 kts 68°
2026-05-03 21:06 21.45036 -85.24688 31061 ft 505 kts 57°
2026-05-03 21:06 21.47107 -85.21656 31414 ft 503 kts 45°
2026-05-03 21:06 21.49622 -85.19157 31809 ft 497 kts 34°
2026-05-03 21:06 21.52367 -85.16915 32219 ft 495 kts 34°
2026-05-03 21:07 21.55156 -85.14665 32632 ft 494 kts 33°
2026-05-03 21:07 21.57864 -85.12486 33018 ft 493 kts 33°
2026-05-03 21:07 21.60606 -85.10277 33392 ft 492 kts 33°
2026-05-03 21:07 21.63340 -85.08073 33756 ft 491 kts 33°
2026-05-03 21:08 21.66066 -85.05873 34105 ft 490 kts 33°
2026-05-03 21:08 21.68791 -85.03671 34395 ft 490 kts 33°
2026-05-03 21:08 21.71515 -85.01468 34674 ft 490 kts 33°
2026-05-03 21:08 21.74236 -84.99267 34935 ft 490 kts 33°
2026-05-03 21:09 21.76958 -84.97063 35193 ft 490 kts 33°
2026-05-03 21:09 21.79682 -84.94856 35446 ft 490 kts 33°
2026-05-03 21:09 21.82404 -84.92649 35714 ft 491 kts 32°
2026-05-03 21:09 21.85137 -84.90433 35984 ft 491 kts 32°
2026-05-03 21:10 21.87863 -84.88221 36268 ft 491 kts 32°
2026-05-03 21:10 21.90593 -84.86005 36550 ft 491 kts 32°
2026-05-03 21:10 21.93317 -84.83792 36819 ft 491 kts 32°
2026-05-03 21:10 21.96045 -84.81576 37092 ft 491 kts 32°
2026-05-03 21:11 21.98770 -84.79362 37361 ft 491 kts 32°
2026-05-03 21:11 22.01492 -84.77148 37616 ft 490 kts 32°
2026-05-03 21:11 22.04215 -84.74934 37864 ft 490 kts 32°
2026-05-03 21:11 22.06936 -84.72718 38112 ft 490 kts 32°
2026-05-03 21:12 22.09657 -84.70503 38347 ft 490 kts 32°
2026-05-03 21:12 22.12375 -84.68289 38592 ft 490 kts 32°
2026-05-03 21:12 22.15093 -84.66074 38798 ft 489 kts 32°
2026-05-03 21:12 22.17805 -84.63862 38955 ft 490 kts 32°
2026-05-03 21:13 22.23240 -84.59426 39004 ft 489 kts 32°
2026-05-03 21:13 22.28666 -84.54994 39002 ft 489 kts 32°
2026-05-03 21:14 22.34094 -84.50555 39005 ft 490 kts 32°
2026-05-03 21:14 22.39549 -84.46092 39002 ft 496 kts 32°
2026-05-03 21:15 22.45048 -84.41589 39008 ft 503 kts 32°
2026-05-03 21:15 22.50652 -84.36989 39008 ft 502 kts 32°
2026-05-03 21:16 22.56180 -84.32449 39010 ft 503 kts 32°
2026-05-03 21:16 22.61752 -84.27869 39008 ft 503 kts 32°
2026-05-03 21:17 22.66160 -84.23632 39010 ft 509 kts 43°
2026-05-03 21:17 22.71527 -84.16820 39007 ft 512 kts 46°
2026-05-03 21:18 22.76110 -84.10928 39005 ft 506 kts 46°
2026-05-03 21:18 22.80645 -84.05217 39012 ft 499 kts 45°
2026-05-03 21:19 22.85189 -83.99490 39005 ft 501 kts 46°
2026-05-03 21:19 22.89723 -83.93749 39006 ft 501 kts 46°
2026-05-03 21:20 22.93673 -83.88737 39006 ft 501 kts 46°
2026-05-03 21:20 22.97810 -83.83487 39006 ft 501 kts 46°
2026-05-03 21:21 23.02342 -83.77728 39009 ft 502 kts 46°
2026-05-03 21:21 23.06437 -83.72517 39006 ft 502 kts 46°
2026-05-03 21:22 23.10971 -83.66740 39009 ft 502 kts 46°
2026-05-03 21:22 23.15460 -83.61014 39011 ft 502 kts 46°
2026-05-03 21:23 23.18823 -83.56720 39010 ft 502 kts 46°
2026-05-03 21:23 23.21999 -83.52662 39009 ft 502 kts 45°
2026-05-03 21:24 23.26564 -83.46784 39001 ft 501 kts 46°
2026-05-03 21:24 23.31033 -83.41079 38975 ft 483 kts 46°
2026-05-03 21:25 23.35141 -83.35825 39009 ft 492 kts 46°
2026-05-03 21:25 23.39684 -83.30002 39000 ft 502 kts 46°
2026-05-03 21:26 23.43978 -83.24485 39006 ft 504 kts 46°
2026-05-03 21:26 23.48474 -83.18701 39007 ft 504 kts 46°
2026-05-03 21:27 23.53020 -83.12848 39010 ft 504 kts 46°
2026-05-03 21:27 23.57547 -83.07009 39004 ft 505 kts 46°
2026-05-03 21:28 23.62073 -83.01161 38998 ft 505 kts 46°
2026-05-03 21:28 23.66596 -82.95311 39000 ft 505 kts 46°
2026-05-03 21:29 23.69661 -82.91343 39015 ft 505 kts 47°
2026-05-03 21:29 23.74427 -82.85171 39000 ft 506 kts 47°
2026-05-03 21:30 23.78214 -82.80257 38998 ft 506 kts 47°
2026-05-03 21:30 23.82711 -82.74415 39001 ft 507 kts 47°
2026-05-03 21:31 23.87252 -82.68510 39003 ft 507 kts 47°
2026-05-03 21:31 23.91796 -82.62593 39001 ft 508 kts 47°
2026-05-03 21:32 23.96339 -82.56671 39004 ft 509 kts 47°
2026-05-03 21:32 24.00940 -82.50787 39002 ft 507 kts 43°
2026-05-03 21:33 24.05811 -82.45187 39002 ft 508 kts 43°
2026-05-03 21:33 24.10672 -82.39571 39006 ft 509 kts 43°
2026-05-03 21:34 24.15381 -82.33755 39011 ft 512 kts 51°
2026-05-03 21:34 24.19121 -82.27092 39008 ft 516 kts 63°
2026-05-03 21:35 24.22211 -82.19994 39000 ft 516 kts 63°
2026-05-03 21:35 24.23763 -82.16454 38773 ft 516 kts 63°
2026-05-03 21:35 24.25315 -82.12913 38348 ft 514 kts 63°
2026-05-03 21:36 24.26854 -82.09391 38051 ft 511 kts 63°
2026-05-03 21:36 24.28385 -82.05879 37551 ft 510 kts 63°
2026-05-03 21:36 24.29915 -82.02368 36938 ft 510 kts 63°
2026-05-03 21:36 24.31436 -81.98872 36593 ft 511 kts 64°
2026-05-03 21:37 24.32974 -81.95334 36348 ft 518 kts 64°
2026-05-03 21:37 24.34532 -81.91748 36113 ft 519 kts 64°
2026-05-03 21:37 24.36085 -81.88170 35876 ft 518 kts 64°
2026-05-03 21:37 24.37631 -81.84605 35634 ft 519 kts 64°
2026-05-03 21:38 24.39182 -81.81026 35397 ft 520 kts 64°
2026-05-03 21:38 24.40731 -81.77449 35167 ft 520 kts 64°
2026-05-03 21:38 24.42283 -81.73861 34927 ft 521 kts 64°
2026-05-03 21:38 24.43834 -81.70275 34700 ft 521 kts 64°
2026-05-03 21:39 24.45570 -81.66768 34438 ft 521 kts 56°
2026-05-03 21:39 24.47663 -81.63530 33844 ft 521 kts 48°
2026-05-03 21:39 24.49984 -81.60470 32920 ft 522 kts 47°
2026-05-03 21:39 24.52314 -81.57398 31772 ft 523 kts 47°
2026-05-03 21:40 24.54633 -81.54327 31079 ft 521 kts 47°
2026-05-03 21:40 24.56939 -81.51265 30298 ft 521 kts 47°
2026-05-03 21:40 24.59231 -81.48219 29738 ft 514 kts 47°
2026-05-03 21:40 24.61459 -81.45255 29162 ft 508 kts 47°
2026-05-03 21:41 24.63731 -81.42232 28571 ft 502 kts 47°
2026-05-03 21:41 24.65931 -81.39303 27989 ft 496 kts 47°
2026-05-03 21:41 24.68118 -81.36390 27445 ft 490 kts 47°
2026-05-03 21:41 24.70262 -81.33531 27172 ft 478 kts 47°
2026-05-03 21:42 24.72336 -81.30764 26712 ft 472 kts 47°
2026-05-03 21:42 24.74433 -81.27966 26184 ft 467 kts 47°
2026-05-03 21:42 24.76501 -81.25207 25650 ft 463 kts 48°
2026-05-03 21:42 24.78540 -81.22483 25127 ft 460 kts 48°
2026-05-03 21:43 24.80566 -81.19776 24583 ft 457 kts 48°
2026-05-03 21:43 24.82574 -81.17091 24072 ft 453 kts 48°
2026-05-03 21:43 24.84570 -81.14461 23810 ft 441 kts 44°
2026-05-03 21:43 24.86788 -81.12231 23685 ft 422 kts 33°
2026-05-03 21:44 24.89177 -81.10571 23556 ft 403 kts 22°
2026-05-03 21:44 24.91670 -81.09323 23429 ft 387 kts 18°
2026-05-03 21:44 24.94095 -81.08133 23303 ft 375 kts 18°
2026-05-03 21:44 24.96441 -81.06970 23182 ft 363 kts 18°
2026-05-03 21:45 24.98705 -81.05847 23076 ft 351 kts 18°
2026-05-03 21:45 25.00892 -81.04763 22971 ft 339 kts 18°
2026-05-03 21:45 25.03009 -81.03716 22828 ft 328 kts 17°
2026-05-03 21:45 25.05072 -81.02699 22509 ft 324 kts 17°
2026-05-03 21:46 25.07132 -81.01686 22153 ft 322 kts 17°
2026-05-03 21:46 25.09173 -81.00681 21807 ft 320 kts 17°
2026-05-03 21:46 25.11193 -80.99684 21468 ft 317 kts 18°
2026-05-03 21:46 25.13200 -80.98693 21138 ft 315 kts 18°
2026-05-03 21:47 25.15188 -80.97710 20813 ft 312 kts 18°
2026-05-03 21:47 25.17162 -80.96732 20493 ft 309 kts 18°
2026-05-03 21:47 25.19118 -80.95764 20160 ft 308 kts 18°
2026-05-03 21:47 25.21083 -80.94794 19645 ft 314 kts 18°
2026-05-03 21:48 25.23106 -80.93798 19076 ft 322 kts 18°
2026-05-03 21:48 25.25177 -80.92776 18492 ft 330 kts 19°
2026-05-03 21:48 25.27289 -80.91731 17847 ft 338 kts 19°
2026-05-03 21:48 25.29469 -80.90650 17166 ft 345 kts 19°
2026-05-03 21:49 25.31672 -80.89556 16644 ft 347 kts 19°
2026-05-03 21:49 25.33876 -80.88458 16283 ft 355 kts 19°
2026-05-03 21:49 25.36230 -80.87296 16249 ft 386 kts 20°
2026-05-03 21:49 25.38765 -80.86044 16229 ft 413 kts 20°
2026-05-03 21:50 25.41478 -80.84740 16213 ft 436 kts 19°